Regional Weather Roundup
Issued by NWS

Home | Current Version | Previous Version | Text Only | Print | Product List | Glossary Off
Versions: 1 2 3 4 5 6 7 8 9 10 11 12 13 14 15 16 17 18 19 20 21 22 23 24 25 26 27 28 29 30 31 32 33 34 35 36 37 38 39 40 41 42 43 44 45 46 47 48 49 50

000
ASUS43 KDMX 161207
RWRIA

WEATHER ROUNDUP FOR IOWA
NATIONAL WEATHER SERVICE DES MOINES IA
700 AM CDT TUE SEP 16 2014

NOTE: "FAIR" INDICATES FEW OR NO CLOUDS BELOW 12,000 FEET WITH NO
SIGNIFICANT WEATHER AND/OR OBSTRUCTIONS TO VISIBILITY.

* - THESE STATIONS ARE NOT NWS STATIONS...THUS NOT UNDER NWS
QUALITY CONTROL.  THEY ALSO DO NOT REPORT WEATHER SUCH
AS PRECIPITATION OR FOG.

IAZ001>003-012>014-020>022-031>034-043>046-161300-
   NORTHWEST IOWA

CITY           SKY/WX    TMP DP  RH WIND       PRES   REMARKS
CARROLL *      CLEAR     36  34  93 CALM      30.24S FOG
CHEROKEE *     CLEAR     35  35 100 CALM      30.23S
DENISON *      CLEAR     37  37 100 CALM      30.23S
LE MARS *        N/A     36  36 100 CALM      30.22F
ORANGE CITY *  CLEAR     43  37  81 S3        30.21F
SHELDON *      CLEAR     36  36 100 CALM      30.20F
SIOUX CITY     FOG       38  37  97 E5        30.23S VSB 1/2 WCI  34
6HR MIN TEMP:  38; 6HR MAX TEMP:  43;

SPENCER        CLEAR     36  34  92 CALM      30.22S
6HR MIN TEMP:  35; 6HR MAX TEMP:  39;

STORM LAKE *   CLEAR     41  41 100 S6        30.23S
$$

IAZ055>058-069>071-079>083-090>094-161300-
   SOUTHWEST IOWA

CITY           SKY/WX    TMP DP  RH WIND       PRES   REMARKS
ATLANTIC *     FOG       37  37 100 CALM      30.25S VSB 0
AUDUBON *      CLEAR     37  36  93 CALM      30.26S
CLARINDA *     FOG       39  39 100 CALM      30.28R VSB 3/4
COUNCIL BLFS * CLEAR     43  43 100 SE5       30.24S
CRESTON *      CLEAR     39  39 100 CALM      30.26R
HARLAN  *      FOG       39  39 100 CALM      30.28S VSB 1/4
LAMONI         CLEAR     45  42  89 N3        30.25S
6HR MIN TEMP:  43; 6HR MAX TEMP:  48;

SHENANDOAH *   FOG       39  39 100 CALM      30.27R VSB 1/4
$$

IAZ047>049-059>061-072>074-084-161300-
   CENTRAL IOWA

CITY           SKY/WX    TMP DP  RH WIND       PRES   REMARKS
AMES           CLEAR     37  36  96 CALM      30.24F
6HR MIN TEMP:  36; 6HR MAX TEMP:  42;

ANKENY *       FOG       39  39 100 CALM      30.25S VSB 1/2
CHARITON *     CLEAR     41  41 100 W5        30.26R FOG
DES MOINES     CLEAR     44  42  93 W3        30.25S
6HR MIN TEMP:  43; 6HR MAX TEMP:  50;

GRINNELL*      CLEAR     41  39  93 CALM      30.25S
KNOXVILLE *    CLEAR     39  39 100 W6        30.24S FOG     WCI  35
MARSHALLTOWN   CLEAR     37  36  96 CALM      30.24S FOG
6HR MIN TEMP:  37; 6HR MAX TEMP:  43;

PELLA *        CLEAR     41  41  99 CALM      30.26S FOG
PERRY *          N/A     37  37 100 CALM      30.25R
$$

IAZ004>006-015-016-023>025-035-036-161300-
   NORTH CENTRAL IOWA

CITY           SKY/WX    TMP DP  RH WIND       PRES   REMARKS
ALGONA *       CLEAR     41  39  93 SW5       30.23F
CLARION *        N/A     36  36 100 S3        30.24S
ESTHERVILLE    CLEAR     39  37  92 SW6       30.21F WCI  35
6HR MIN TEMP:  37; 6HR MAX TEMP:  40;

FORT DODGE *   CLEAR     36  34  93 CALM      30.24S
MASON CITY     CLEAR     36  35  96 CALM      30.24S
6HR MIN TEMP:  36; 6HR MAX TEMP:  40;

FOREST CITY *    N/A     34  34 100 CALM      30.23S FOG
IOWA FALLS *     N/A     36  34  93 CALM      30.25S
$$

IAZ007>011-017>019-026>030-037>042-050>054-066-161300-
   NORTHEAST IOWA

CITY           SKY/WX    TMP DP  RH WIND       PRES   REMARKS
CEDAR RAPIDS   CLEAR     40  40 100 NW6       30.24R FOG
6HR MIN TEMP:  39; 6HR MAX TEMP:  45;

CHARLES CITY * FOG       37  37 100 CALM      30.24S VSB 3/4
CLINTON *      CLEAR     37  36  93 N3        30.26R
DECORAH *      CLEAR     37  37 100 CALM      30.22S
DUBUQUE        CLEAR     38  36  92 MISG      30.23S
6HR MIN TEMP:  37; 6HR MAX TEMP:  47;

MONTICELLO *   CLEAR     36  36 100 CALM      30.24S
OELWEIN *      FOG       36  36 100 W3        30.25R VSB 1/4
WATERLOO       FOG       35  34  96 CALM      30.24S VSB 1/2
6HR MIN TEMP:  34; 6HR MAX TEMP:  39;

$$

IAZ064-065-067-068-078-161300-
   EAST CENTRAL IOWA

CITY           SKY/WX    TMP DP  RH WIND       PRES   REMARKS
DAVENPORT      CLEAR     38  36  92 W5        30.24R WCI  34
6HR MIN TEMP:  38; 6HR MAX TEMP:  44;

IOWA CITY      CLEAR     41  40  96 W5        30.26R
6HR MIN TEMP:  40; 6HR MAX TEMP:  48;

MT. PLEASANT * CLEAR     40  39  97 CALM      30.25S FOG
MUSCATINE *    FOG       41  41 100 CALM      30.26R VSB 3/4
QUAD CITIES    CLEAR     41  39  93 SW3       30.24R FOG
6HR MIN TEMP:  41; 6HR MAX TEMP:  47;

$$

IAZ062-063-075>077-085>089-095>099-161300-
   SOUTHEAST IOWA

CITY           SKY/WX    TMP DP  RH WIND       PRES   REMARKS
BURLINGTON     CLEAR     42  41  96 N5        30.25R FOG
6HR MIN TEMP:  41; 6HR MAX TEMP:  49;

FAIRFIELD *    CLEAR     41  39  93 CALM      30.26R
FORT MADISON * CLEAR     46  45  93 CALM      30.26R FOG
KEOKUK *       FOG       43  43 100 CALM      30.25R VSB 0
OSKALOOSA *      N/A     40  39  97 N3        30.25F
CENTERVILLE *  CLEAR     41  41 100 W3        30.26S
OTTUMWA        CLEAR     41  39  93 CALM      30.25S FOG
6HR MIN TEMP:  39; 6HR MAX TEMP:  45;

WASHINGTON *   CLEAR     39  39 100 CALM      30.25S
$$

ABBREVIATIONS USED IN REMARKS
   TC - TEMPERATURES IN CELSIUS
  WCI - WIND CHILL INDEX
   HX - HEAT INDEX
  VSB - VISIBILITY
$$




USA.gov is the U.S. government's official web portal to all federal, state and local government web resources and services.